Wetbulb
51.77 52.24 52.29 52.73 52.36 52.99 51.15 48.65 46.90 43.93 42.08 44.80 43.43 46.08 46.38 46.97 46.74 45.89 44.45 46.45 46.58 46.36 46.79 47.80 50.60 53.90 54.47 54.14 54.89 55.82 56.74 57.73 57.36 57.21 57.14 56.92 57.11 57.04
51.67 51.17 50.82 51.97 51.74 52.00 51.62 49.39 47.62 46.31 43.02 43.58 44.64 44.97 46.49 46.90 46.49 47.11 45.82 47.08 46.36 45.81 45.58 45.86 47.47 51.09 52.20 52.00 52.92 54.01 55.01 55.32 55.26 55.79 56.10 56.12 56.50 55.95
50.83 50.59 50.69 50.50 49.71 49.66 48.67 47.84 46.77 45.90 43.95 43.24 44.23 46.05 45.73 44.64 45.63 44.65 45.14 44.12 44.75 45.77 45.31 45.15 45.77 47.98 49.53 49.85 50.43 51.82 52.26 52.51 53.31 53.87 54.36 54.82 55.35 54.95
47.47 47.45 47.48 48.23 46.92 47.20 46.68 45.62 45.65 44.35 43.30 42.91 42.88 43.20 43.67 43.91 43.41 41.53 43.76 45.42 45.45 45.83 45.44 45.91 45.49 45.81 47.57 47.73 47.95 48.97 49.28 49.63 50.38 51.08 51.81 52.49 53.07 53.56
46.88 46.31 46.38 46.10 44.89 44.13 43.70 43.81 43.71 44.69 44.60 42.63 40.03 40.74 40.03 41.80 41.45 42.62 42.95 43.86 44.88 46.35 45.76 44.34 44.78 46.08 46.61 47.15 47.31 47.93 48.00 46.91 47.08 47.01 47.56 47.86 48.97 50.35
45.98 45.09 44.87 44.98 43.80 42.46 43.12 42.86 42.57 44.29 43.35 41.10 38.43 36.43 37.51 38.33 41.03 40.35 39.96 40.75 41.96 44.81 45.79 44.69 44.94 45.78 46.14 45.67 46.50 46.57 46.23 45.78 44.97 44.08 43.84 43.13 44.38 46.42
44.11 44.31 43.73 43.71 44.01 42.89 43.81 43.92 42.77 42.26 40.49 38.41 35.53 34.62 33.88 34.77 35.66 38.60 38.81 37.41 37.13 39.40 40.88 41.62 44.18 45.54 45.23 46.16 45.99 45.63 44.92 44.44 44.08 43.55 42.91 42.50 42.62 43.27
42.22 42.16 41.70 42.10 42.41 41.22 40.60 40.41 42.92 41.57 37.69 37.49 36.95 35.32 35.09 36.49 37.03 37.20 34.76 34.23 33.16 38.68 36.87 37.62 41.63 39.73 41.19 44.11 43.71 43.43 43.49 43.57 43.14 42.76 42.16 41.55 41.23 41.15
39.58 39.89 41.23 41.96 41.38 43.45 41.05 38.58 38.84 38.55 35.67 38.93 37.00 36.10 34.76 35.90 36.29 34.03 35.16 35.19 33.08 35.22 36.18 32.93 37.79 36.77 39.71 41.49 42.01 42.27 42.13 41.86 41.60 41.07 40.59 39.94 39.33 38.84
37.96 38.04 38.73 39.80 39.98 40.29 39.76 39.38 39.47 38.80 37.92 37.02 37.88 37.37 37.97 37.89 37.86 37.39 36.01 32.61 34.48 34.27 34.41 29.95 34.39 33.44 38.07 40.03 41.55 41.66 40.98 40.79 40.28 39.91 39.33 38.63 37.78 37.10
37.52 37.52 39.17 39.16 38.60 39.48 37.31 35.50 34.94 34.94 36.97 38.15 37.83 37.77 37.80 37.69 37.46 34.80 32.58 33.08 31.10 31.10 32.21 31.83 31.13 31.62 32.21 35.77 39.04 40.12 40.15 39.54 39.16 38.81 38.25 37.66 36.93 36.39
37.13 37.78 37.48 38.23 37.37 37.03 36.88 35.78 33.87 34.38 33.49 33.13 34.45 35.99 37.17 37.15 35.66 36.98 34.89 33.10 31.05 29.78 32.04 31.00 31.47 31.06 28.44 31.80 36.06 38.21 37.63 37.84 38.11 37.93 37.68 37.09 36.27 34.04
33.76 33.77 34.28 35.73 36.38 36.78 36.77 35.92 35.58 34.65 32.76 33.62 33.11 32.78 33.49 34.36 34.32 35.14 36.14 35.50 32.92 31.07 33.40 32.75 29.95 29.48 29.29 28.46 31.05 33.56 36.05 36.07 36.09 36.35 36.84 35.99 35.57 33.61
33.91 33.76 33.91 35.61 36.39 36.39 35.04 35.34 34.35 32.57 32.73 32.37 32.15 31.81 32.09 32.22 33.61 33.85 34.69 34.59 34.43 34.16 33.85 32.78 30.65 29.10 29.80 28.91 27.82 31.27 31.96 33.52 34.25 32.92 33.10 34.55 34.49 33.71
32.88 33.71 34.57 35.29 35.66 33.62 34.38 34.35 32.13 32.72 32.31 31.77 31.53 31.60 32.09 33.23 34.07 33.70 34.08 34.36 33.80 33.74 34.29 33.87 32.15 32.17 32.82 29.10 28.49 29.35 30.22 30.71 32.42 31.83 31.54 31.05 30.09 29.86
32.40 32.76 32.91 31.87 32.60 32.58 32.24 32.54 32.72 32.67 32.63 32.27 31.91 32.51 32.90 33.32 32.78 33.29 32.15 32.18 31.34 30.82 32.90 32.81 33.41 33.21 30.16 30.35 30.59 28.72 28.72 27.47 31.03 31.54 30.96 29.73 29.57 29.48
32.19 32.05 32.02 31.84 31.47 31.12 30.76 31.26 31.45 31.96 31.94 32.15 31.89 32.06 32.60 32.79 32.68 33.61 32.69 32.19 30.68 29.94 29.51 31.18 31.84 32.18 32.25 31.39 28.97 29.51 28.05 28.47 30.88 30.70 30.32 28.34 28.67 28.58
31.45 31.29 31.44 31.98 31.26 30.89 30.52 30.50 30.89 31.24 31.94 32.42 32.25 32.55 32.55 32.21 31.98 32.72 32.81 31.73 30.41 30.49 29.92 30.34 30.52 29.34 29.19 29.97 32.17 28.71 28.69 28.16 30.05 30.36 30.43 28.23 27.39 27.97
30.38 31.60 31.78 31.99 31.98 31.26 31.07 30.88 30.47 31.36 31.44 32.24 32.37 32.57 32.78 32.24 31.67 31.48 31.46 30.49 30.11 30.06 30.19 30.84 30.02 28.00 25.68 23.82 28.16 31.97 27.64 27.82 28.74 28.37 29.37 29.19 28.04 28.15
30.58 31.23 31.77 31.96 31.45 31.10 31.29 31.07 30.91 31.26 31.38 32.04 32.27 32.48 32.73 32.18 31.71 31.53 30.82 30.08 29.86 29.33 29.23 30.15 30.38 29.05 27.47 26.67 26.28 27.76 31.21 27.90 27.41 26.84 27.20 27.40 26.47 29.58
30.55 30.70 31.78 31.47 31.47 31.29 31.81 31.80 31.95 31.72 31.86 31.88 32.09 32.27 32.54 32.37 31.83 31.86 31.47 30.90 29.11 29.59 28.52 28.95 31.11 29.64 29.38 29.60 25.58 26.54 28.62 31.28 29.95 27.59 27.26 25.17 23.68 23.86
31.07 30.84 31.00 30.91 31.81 31.99 32.19 32.22 31.99 31.44 31.59 31.71 31.92 32.31 32.52 32.46 32.21 31.98 32.00 30.62 29.84 29.70 29.91 30.38 30.14 29.91 28.37 28.64 26.38 27.25 27.71 28.93 30.93 30.38 29.80 28.50 25.80 22.52
31.28 31.23 30.65 30.97 31.00 31.99 31.63 31.63 31.60 32.04 31.74 31.88 31.71 31.86 32.31 31.85 32.06 32.40 32.54 32.31 31.23 30.33 30.48 30.36 30.14 29.93 27.70 28.45 26.51 27.39 27.71 28.37 28.47 28.07 27.77 29.97 30.76 30.67
MSLP
1015.81 1016.09 1016.39 1016.44 1016.50 1016.85 1017.00 1016.99 1017.16 1016.64 1016.06 1015.87 1016.17 1015.85 1015.57 1015.32 1015.46 1015.67 1015.85 1015.78 1015.24 1015.16 1014.96 1014.72 1014.64 1014.27 1014.60 1014.76 1015.32 1015.59 1015.56 1016.12 1016.18 1017.02 1018.01 1018.67 1019.12 1019.40
1015.51 1015.95 1016.05 1016.34 1016.27 1016.35 1016.41 1016.47 1016.30 1016.35 1015.43 1015.56 1015.46 1015.46 1015.41 1015.17 1015.07 1015.33 1015.18 1015.46 1015.10 1014.81 1014.67 1014.55 1014.30 1014.07 1013.95 1014.48 1015.23 1015.21 1015.84 1015.69 1016.33 1017.10 1017.86 1018.72 1019.07 1020.20
1015.15 1015.58 1015.85 1015.76 1015.94 1015.94 1015.83 1015.75 1015.76 1015.95 1015.79 1015.24 1015.22 1015.06 1015.13 1014.84 1014.70 1015.01 1015.00 1015.04 1014.77 1014.33 1014.11 1014.07 1013.93 1013.57 1013.42 1013.97 1014.76 1015.15 1015.75 1016.12 1016.52 1017.45 1018.30 1018.96 1019.71 1020.69
1014.76 1015.00 1015.08 1015.46 1015.45 1015.33 1015.48 1015.67 1015.33 1015.37 1015.69 1015.42 1015.28 1015.21 1015.09 1014.99 1014.65 1014.75 1014.80 1014.55 1014.20 1014.03 1013.89 1013.67 1013.60 1013.48 1013.26 1013.68 1014.44 1014.95 1015.70 1016.46 1016.69 1017.75 1018.69 1019.29 1020.22 1021.11
1014.06 1014.47 1014.90 1015.18 1015.17 1015.13 1015.02 1015.00 1015.05 1014.83 1014.93 1015.03 1015.47 1015.17 1015.02 1015.15 1015.04 1014.64 1014.56 1014.25 1013.91 1013.62 1013.44 1013.30 1013.13 1013.13 1013.28 1013.44 1014.10 1014.65 1015.53 1016.82 1017.25 1018.02 1018.86 1019.77 1020.55 1021.34
1013.01 1014.23 1014.61 1014.97 1015.05 1015.06 1015.04 1014.98 1014.89 1014.58 1014.53 1014.79 1015.01 1015.16 1015.31 1015.34 1015.18 1014.78 1014.54 1014.23 1013.66 1013.30 1012.99 1012.81 1012.73 1012.70 1013.04 1013.46 1013.80 1014.60 1015.45 1016.80 1017.57 1018.36 1019.30 1020.30 1021.14 1022.32
1013.33 1014.01 1014.40 1014.37 1014.62 1014.31 1014.47 1014.23 1014.21 1014.13 1014.33 1014.51 1014.71 1015.14 1015.18 1015.34 1015.13 1014.79 1014.58 1014.26 1014.03 1013.64 1013.01 1012.87 1013.01 1012.82 1013.01 1013.06 1013.66 1014.90 1015.50 1016.95 1017.79 1018.82 1019.95 1020.70 1021.70 1023.02
1013.33 1013.56 1013.72 1014.08 1014.12 1014.06 1014.00 1013.86 1013.66 1013.69 1014.00 1013.97 1014.11 1014.58 1014.87 1014.95 1014.78 1014.69 1014.66 1014.56 1014.37 1013.82 1013.70 1013.72 1013.38 1013.61 1013.79 1013.98 1014.66 1015.20 1016.28 1017.40 1018.38 1019.39 1020.60 1021.34 1022.29 1023.53
1012.96 1013.28 1013.65 1014.01 1013.89 1013.66 1013.23 1013.11 1013.42 1013.57 1013.58 1013.57 1013.79 1013.93 1014.27 1014.41 1014.44 1014.51 1014.61 1014.54 1014.61 1014.55 1014.30 1014.59 1014.45 1014.78 1015.07 1015.19 1015.28 1015.85 1016.69 1017.95 1018.99 1020.02 1021.19 1021.91 1023.10 1024.09
1012.73 1013.10 1013.43 1013.70 1013.81 1013.39 1012.99 1012.98 1013.14 1013.27 1013.12 1013.55 1013.63 1013.50 1013.64 1013.88 1014.15 1014.31 1014.48 1014.87 1014.99 1015.18 1015.14 1015.71 1015.76 1015.96 1016.14 1016.13 1016.34 1016.78 1017.47 1018.64 1019.65 1020.82 1021.77 1022.71 1023.77 1024.81
1012.56 1013.14 1013.38 1013.32 1012.78 1012.74 1012.83 1012.65 1012.75 1013.21 1013.09 1012.89 1013.30 1013.31 1013.35 1013.52 1013.85 1014.27 1014.67 1014.81 1015.40 1015.89 1015.97 1016.24 1016.96 1017.17 1017.58 1017.64 1017.46 1017.46 1018.76 1019.61 1020.44 1021.62 1022.74 1023.71 1024.61 1025.68
1012.60 1012.80 1012.93 1012.75 1012.63 1012.49 1012.62 1012.40 1012.78 1012.70 1012.94 1013.04 1013.26 1013.23 1013.21 1013.38 1013.73 1013.90 1014.30 1014.55 1015.06 1016.08 1016.44 1016.72 1017.16 1017.43 1018.61 1019.20 1019.15 1019.37 1020.13 1020.84 1021.29 1022.41 1023.73 1024.37 1025.04 1026.44
1012.27 1012.46 1012.38 1012.37 1012.21 1012.17 1012.40 1012.19 1012.02 1012.42 1012.73 1012.90 1013.19 1013.32 1013.34 1013.50 1013.80 1013.97 1014.10 1014.21 1014.71 1015.32 1015.91 1016.18 1017.36 1017.83 1018.78 1020.07 1020.63 1020.82 1020.98 1021.99 1022.72 1023.74 1024.53 1025.01 1025.46 1026.37
1011.73 1012.03 1011.77 1012.02 1011.88 1011.59 1011.75 1011.87 1011.89 1012.14 1012.54 1013.02 1013.26 1013.42 1013.52 1013.68 1013.90 1014.09 1014.24 1014.49 1014.59 1014.78 1015.51 1015.78 1016.98 1017.50 1018.41 1020.12 1021.19 1021.98 1022.43 1022.98 1023.54 1024.60 1025.58 1026.03 1026.48 1027.02
1011.76 1011.51 1011.37 1011.63 1011.27 1011.28 1011.26 1011.56 1011.73 1012.12 1012.49 1012.94 1013.09 1013.36 1013.46 1013.70 1014.06 1014.28 1014.53 1014.79 1015.14 1015.57 1016.06 1016.14 1016.69 1017.57 1018.11 1019.49 1020.64 1022.02 1022.85 1023.88 1024.26 1024.95 1025.93 1026.44 1027.03 1027.79
1011.10 1011.25 1011.18 1011.14 1010.93 1011.00 1011.11 1011.37 1011.57 1011.87 1012.25 1012.59 1012.89 1013.25 1013.53 1013.85 1014.14 1014.42 1014.84 1015.22 1015.68 1016.39 1016.74 1017.02 1017.30 1017.57 1018.97 1019.78 1020.25 1021.89 1022.81 1023.60 1024.52 1025.26 1025.85 1026.79 1027.47 1027.97
1011.19 1010.90 1011.16 1011.10 1011.06 1010.92 1011.03 1011.26 1011.56 1011.87 1012.20 1012.46 1012.81 1013.16 1013.42 1013.77 1014.15 1014.54 1015.00 1015.38 1015.75 1016.40 1017.14 1017.74 1018.12 1018.46 1018.85 1019.38 1021.03 1021.81 1022.72 1023.64 1024.49 1025.12 1025.77 1026.76 1027.53 1028.02
1011.01 1010.92 1011.02 1010.88 1010.91 1010.82 1011.06 1011.19 1011.46 1011.77 1012.02 1012.22 1012.59 1012.94 1013.20 1013.54 1014.06 1014.55 1014.98 1015.39 1015.85 1016.48 1017.09 1017.74 1018.26 1019.10 1020.04 1020.86 1021.00 1021.77 1022.88 1023.54 1024.23 1024.98 1025.54 1026.46 1027.36 1028.09
1010.54 1010.85 1010.75 1010.63 1010.66 1010.57 1010.84 1010.94 1011.21 1011.45 1011.81 1012.04 1012.34 1012.66 1013.03 1013.40 1013.90 1014.41 1014.90 1015.37 1015.89 1016.43 1017.04 1017.56 1018.13 1018.66 1019.63 1020.74 1021.62 1021.81 1022.29 1023.38 1024.11 1024.96 1025.48 1025.92 1026.68 1027.55
1010.14 1010.48 1010.41 1010.49 1010.42 1010.43 1010.62 1010.71 1010.92 1011.26 1011.63 1011.85 1012.11 1012.38 1012.77 1013.18 1013.66 1014.13 1014.71 1015.28 1015.82 1016.38 1016.98 1017.59 1018.02 1018.40 1018.96 1019.79 1020.95 1021.72 1022.23 1022.80 1023.51 1024.51 1025.29 1026.14 1026.83 1027.36
1010.07 1010.18 1010.06 1010.09 1010.18 1010.23 1010.38 1010.51 1010.68 1010.97 1011.25 1011.56 1011.83 1012.10 1012.46 1012.91 1013.42 1013.91 1014.45 1015.09 1015.68 1016.17 1016.74 1017.29 1017.77 1018.23 1018.94 1019.60 1020.74 1021.47 1022.19 1022.64 1023.03 1023.81 1024.94 1025.87 1026.65 1027.19
1009.96 1009.83 1009.67 1009.71 1009.85 1009.98 1010.17 1010.35 1010.50 1010.78 1011.02 1011.25 1011.52 1011.78 1012.13 1012.52 1012.99 1013.53 1014.05 1014.69 1015.33 1015.81 1016.46 1017.13 1017.81 1018.37 1018.88 1019.32 1020.36 1021.01 1021.95 1022.78 1023.28 1023.65 1023.91 1024.06 1025.06 1025.65
1009.45 1009.46 1009.36 1009.39 1009.53 1009.75 1009.98 1010.13 1010.27 1010.49 1010.71 1010.92 1011.20 1011.48 1011.82 1012.23 1012.61 1013.08 1013.62 1014.13 1014.82 1015.54 1016.14 1016.86 1017.57 1018.07 1018.61 1019.05 1019.85 1020.65 1021.38 1022.18 1022.92 1023.61 1024.20 1024.11 1024.16 1024.21
Wind_Speed
6 5 3 3 3 6 5 4 5 10 7 3 3 4 5 2 2 3 5 10 10 10 12 12 16 17 21 18 14 13 17 19 22 20 21 20 16 17
2 3 4 4 5 5 7 5 4 6 11 4 4 4 2 1 4 5 4 12 11 11 9 13 16 20 21 18 15 16 10 17 19 17 17 21 23 22
2 4 5 4 5 4 4 5 5 4 8 3 1 2 3 2 3 4 4 5 5 11 12 11 12 13 18 18 15 17 16 16 20 20 22 23 23 23
2 5 6 3 5 5 3 5 4 4 4 9 3 3 4 5 3 3 5 5 6 11 12 15 13 9 15 16 17 20 20 17 24 22 21 21 20 19
5 4 5 5 5 4 4 4 4 4 5 3 4 2 1 2 3 3 5 7 7 13 16 15 14 14 17 21 20 22 23 16 18 17 18 15 15 20
4 4 5 5 5 6 5 6 5 4 3 2 2 1 2 4 3 5 7 3 6 4 8 7 10 18 19 17 23 22 22 19 19 19 20 20 22 21
3 4 4 4 10 8 4 6 5 4 3 3 2 0 1 1 3 2 4 2 2 3 1 1 5 7 9 16 17 20 22 21 23 24 25 28 27 23
3 3 3 6 8 10 10 11 7 5 4 3 3 3 3 3 3 3 1 1 2 3 3 3 4 6 5 4 15 22 24 25 26 28 27 28 27 26
3 4 3 5 8 7 7 7 7 7 4 4 4 5 3 4 2 2 4 2 1 3 4 4 3 7 5 7 17 22 26 26 27 27 27 28 27 26
4 5 5 7 8 6 5 4 5 5 5 3 5 4 5 4 4 2 2 3 4 4 4 4 4 7 5 6 19 25 27 25 26 26 26 27 28 27
2 4 6 7 7 6 5 4 3 4 2 5 7 6 8 9 5 5 3 6 2 2 3 4 2 6 5 5 9 25 21 26 28 25 25 26 26 25
4 6 8 7 8 6 5 5 5 5 4 1 2 2 3 4 11 6 6 7 4 2 1 4 3 3 4 4 6 8 12 20 25 27 25 27 25 12
4 4 3 8 9 8 9 6 6 5 3 3 2 2 2 2 3 2 6 6 6 2 5 4 2 3 4 4 4 5 9 10 10 14 22 22 23 19
5 3 3 9 10 9 6 7 8 5 3 3 3 2 2 2 3 3 4 4 3 3 9 3 5 2 7 4 4 3 6 6 9 8 7 12 17 20
2 5 9 11 10 6 7 8 7 4 4 3 4 3 2 3 5 5 5 8 8 8 4 4 8 9 8 6 8 5 7 3 6 8 7 7 8 7
2 4 4 4 3 3 2 6 4 4 5 4 4 3 3 5 5 5 5 6 7 6 6 7 10 12 8 7 11 9 6 6 6 7 7 6 6 6
3 0 1 1 1 1 1 3 3 4 4 4 4 5 5 5 5 6 5 5 5 6 5 6 6 6 6 13 7 8 8 5 8 8 8 7 5 6
1 1 2 2 3 2 3 3 3 4 4 5 5 6 5 6 6 6 6 5 8 6 6 6 8 6 4 5 3 8 5 6 7 8 7 7 6 5
1 2 3 3 3 3 3 3 4 4 4 5 5 6 5 5 8 7 6 5 6 6 7 7 8 6 6 3 3 10 8 6 8 7 7 6 6 7
2 3 3 3 2 2 3 3 3 4 5 5 5 6 6 7 7 7 7 7 7 5 6 6 7 7 7 6 5 4 13 9 10 9 7 3 3 10
3 3 3 2 2 2 2 3 4 5 5 5 6 6 6 7 7 7 7 9 8 7 8 8 6 7 4 6 4 5 7 14 12 11 9 7 6 4
3 3 3 3 3 2 3 3 3 4 5 5 5 6 6 7 7 8 8 9 8 7 6 5 7 5 3 3 5 9 7 6 9 12 19 12 9 8
4 3 2 2 2 2 2 3 3 4 4 5 5 6 6 7 6 7 8 8 8 7 8 7 7 4 2 3 5 7 10 9 7 8 7 12 7 6
Wind_Direction
216 229 230 249 213 243 231 190 227 288 283 221 248 255 264 258 278 286 302 289 278 276 279 279 267 223 197 185 191 192 197 167 142 148 161 166 151 137
224 246 241 247 247 242 240 219 196 245 279 178 223 227 250 263 251 250 245 274 281 281 275 283 267 240 188 187 191 168 165 156 147 149 138 138 129 131
242 263 270 256 249 249 236 224 223 218 263 295 238 242 248 259 264 245 267 272 270 276 283 277 263 228 181 176 180 162 148 144 129 129 133 132 132 140
243 235 246 258 260 250 253 257 235 205 220 269 222 219 232 254 262 296 281 260 271 286 282 279 255 238 191 168 162 149 141 145 134 135 131 127 128 135
197 212 242 251 256 255 253 251 239 234 219 191 231 233 254 308 288 271 280 289 282 275 275 265 248 207 190 166 159 150 143 155 144 143 140 143 142 130
108 236 244 253 266 268 261 250 242 217 182 198 195 220 216 263 252 280 279 278 285 272 251 249 210 186 169 161 154 145 138 135 130 128 122 113 112 117
232 248 265 273 270 247 232 246 203 192 198 196 178 130 209 273 241 262 273 290 302 296 210 65 149 141 129 137 129 134 123 129 124 120 121 119 117 115
237 255 276 291 281 259 258 250 211 189 211 178 176 196 222 237 238 256 218 253 322 355 26 37 103 74 68 75 126 129 131 132 130 127 127 122 117 117
209 241 287 270 272 265 255 238 217 219 211 169 202 200 212 215 211 241 226 189 138 342 62 46 34 72 73 112 129 127 131 129 128 126 126 120 118 115
230 227 228 247 254 260 248 231 232 226 207 207 223 224 223 205 215 221 157 102 73 43 14 69 47 60 64 99 122 127 120 125 122 121 122 121 120 117
251 256 246 253 249 253 238 226 233 244 248 218 235 248 242 214 172 129 152 146 107 47 25 96 31 82 53 50 99 107 117 127 120 119 120 120 117 115
266 247 252 255 265 255 235 209 219 217 186 189 233 244 224 212 181 189 172 168 134 97 261 95 128 108 67 10 72 98 109 112 120 121 125 123 118 115
243 264 268 289 289 272 240 215 207 163 179 177 154 126 104 158 171 197 188 169 157 102 166 117 120 90 72 110 40 56 109 114 112 119 129 129 127 130
249 246 250 275 281 275 254 215 162 137 133 145 152 148 163 144 157 121 118 93 63 118 157 153 120 129 130 104 109 86 87 105 121 122 125 126 126 135
241 261 263 268 270 270 250 190 149 148 149 166 169 161 154 143 139 108 97 94 83 112 107 87 125 129 134 132 140 137 135 112 127 129 131 134 136 135
278 270 265 258 251 235 155 160 157 163 170 176 157 139 132 154 143 133 120 119 111 91 77 102 129 135 114 127 136 141 128 148 147 149 135 123 130 140
283 223 264 255 256 174 130 140 132 145 159 153 152 156 161 156 160 148 136 140 129 139 120 113 84 83 99 140 134 149 141 130 155 150 145 143 151 154
197 234 249 236 230 191 181 162 158 172 175 161 161 166 166 159 157 159 159 154 148 145 137 137 128 104 82 35 99 144 149 145 154 159 153 156 161 165
189 243 251 232 229 191 192 173 177 181 156 169 171 170 163 156 158 159 155 143 144 146 148 146 147 142 138 124 128 187 157 156 151 165 173 184 173 172
188 228 242 235 224 201 196 182 158 160 174 175 176 169 166 162 163 164 159 157 152 143 144 153 167 165 159 154 141 158 179 164 170 174 171 115 92 149
221 231 233 214 218 199 199 180 172 179 179 177 180 174 169 168 172 167 159 160 156 159 168 175 168 131 114 104 101 144 168 176 172 163 160 160 160 160
243 232 223 208 209 202 198 183 172 174 180 179 180 176 175 176 177 173 170 167 170 169 168 148 145 131 127 122 143 146 159 162 181 175 175 163 166 192
225 231 226 204 190 197 192 190 182 179 185 182 179 179 176 181 174 177 177 173 166 158 156 154 160 158 129 128 136 150 162 158 163 171 188 213 182 169